This is the latest recevied weather packets stored in our database for station/object F8KHU-13. If no packets are shown the sender has not sent any weather packets the latest 1 day(s).
| Time | Temp. | Humidity | Pressure | Rain* | Wind** | Luminosity | Snow |
|---|---|---|---|---|---|---|---|
| 1777968596 | 12.78° C | 33% | 1011.6 hPa | 0 mm | 0.45 m/s, 153° | 0 W/m² | - |
| 1777967748 | 12.78° C | 34% | 1011.8 hPa | 0 mm | 0.89 m/s, 149° | 0 W/m² | - |
| 1777967736 | 12.78° C | 33% | 1011.8 hPa | 0 mm | 1.34 m/s, 149° | 0 W/m² | - |
| 1777967716 | 12.78° C | 34% | 1011.8 hPa | 0 mm | 0.89 m/s, 149° | 0 W/m² | - |
| 1777967696 | 12.78° C | 33% | 1011.9 hPa | 0 mm | 0 m/s | 0 W/m² | - |
| 1777966842 | 12.78° C | 33% | 1012 hPa | 0 mm | 1.34 m/s, 145° | 0 W/m² | - |
| 1777966796 | 12.78° C | 33% | 1012 hPa | 0 mm | 0 m/s | 0 W/m² | - |
| 1777965917 | 12.78° C | 33% | 1012 hPa | 0 mm | 0 m/s | 0 W/m² | - |
| 1777965897 | 12.78° C | 34% | 1012 hPa | 0 mm | 0.45 m/s, 139° | 0 W/m² | - |
| 1777965037 | 12.78° C | 33% | 1012 hPa | 0 mm | 0 m/s | 0 W/m² | - |
| 1777965017 | 12.78° C | 34% | 1012 hPa | 0 mm | 0 m/s | 0 W/m² | - |
| 1777964997 | 12.78° C | 34% | 1012 hPa | 0 mm | 0.45 m/s, 144° | 0 W/m² | - |
| 1777964137 | 12.78° C | 34% | 1012.1 hPa | 0 mm | 0.89 m/s, 146° | 0 W/m² | - |
| 1777964117 | 12.78° C | 34% | 1012 hPa | 0 mm | 0 m/s | 0 W/m² | - |
| 1777964097 | 12.78° C | 34% | 1012.1 hPa | 0 mm | 1.79 m/s, 146° | 0 W/m² | - |
| 1777963237 | 12.78° C | 34% | 1012.1 hPa | 0 mm | 0 m/s | 0 W/m² | - |
| 1777963217 | 12.78° C | 34% | 1012.1 hPa | 0 mm | 0.45 m/s, 143° | 0 W/m² | - |
| 1777963197 | 12.78° C | 34% | 1012.1 hPa | 0 mm | 0 m/s | 0 W/m² | - |
| 1777962337 | 12.78° C | 39% | 1012 hPa | 0 mm | 0 m/s | 0 W/m² | - |
| 1777962317 | 12.78° C | 39% | 1012.1 hPa | 0 mm | 0 m/s | 0 W/m² | - |
| 1777962297 | 12.78° C | 39% | 1012.1 hPa | 0 mm | 0.45 m/s, 137° | 0 W/m² | - |
| 1777961437 | 12.78° C | 45% | 1012.3 hPa | 0 mm | 0.45 m/s, 151° | 0 W/m² | - |
| 1777961417 | 12.78° C | 45% | 1012.2 hPa | 0 mm | 2.68 m/s, 152° | 0 W/m² | - |
| 1777961397 | 12.78° C | 45% | 1012.2 hPa | 0 mm | 1.34 m/s, 151° | 0 W/m² | - |
| 1777960517 | 12.78° C | 46% | 1012.1 hPa | 0 mm | 0 m/s | 0 W/m² | - |
* Rain latest hour (hover to see other rain measurements)
** Current wind speed in m/s (hover to see current wind gust speed)